Regional Weather Roundup
Issued by NWS Green Bay, WI

Home | Current Version | Previous Version | Text Only | Print | Product List | Glossary On
Versions: 1 2 3 4 5 6 7 8 9 10 11 12 13 14 15 16 17 18 19 20 21 22 23 24 25 26 27 28 29 30 31 32 33 34 35 36 37 38 39 40 41 42 43 44 45 46 47 48 49 50
000
ASUS43 KGRB 220700
RWRGRB

NORTH-CENTRAL AND NORTHEAST WISCONSIN REGIONAL WEATHER ROUNDUP
NATIONAL WEATHER SERVICE GREEN BAY WI
200 AM CDT FRI MAY 22 2015

WIZ005-009-010>012-018-019-220800-
NORTH CENTRAL WISCONSIN

CITY           SKY/WX    TMP DP  RH WIND       PRES   REMARKS
IRONWOOD       CLEAR     34  32  93 CALM      30.08R
MANITOWISH WTR NOT AVBL
ARBOR VITAE    NOT AVBL
EAGLE RIVER    NOT AVBL
LAND O LAKES   NOT AVBL
RHINELANDER    CLEAR     39  31  72 E6        30.10R
PHILLIPS       NOT AVBL
ANTIGO         NOT AVBL
TOMAHAWK       NOT AVBL
MERRILL        NOT AVBL
$$

WIZ013-073-220800-
NORTHEAST WISCONSIN

CITY           SKY/WX    TMP DP  RH WIND       PRES   REMARKS
IRON MOUNTAIN  CLEAR     33  26  75 CALM      30.09R
MARINETTE      CLEAR     37  28  70 NW6       30.10R
$$

WIZ017-030-035>037-045-220800-
CENTRAL WISCONSIN

CITY           SKY/WX    TMP DP  RH WIND       PRES   REMARKS
MEDFORD        NOT AVBL
WAUSAU         CLEAR     41  35  79 CALM      30.08R
MOSINEE        NOT AVBL
MARSHFIELD     CLEAR     46  32  58 NE3       30.09R
WISC RAPIDS    CLEAR     42  34  73 CALM      30.10R
STEVENS POINT  NOT AVBL
WAUPACA        NOT AVBL
SHAWANO        NOT AVBL
CLINTONVILLE   NOT AVBL
$$

WIZ038-039-048-051-220800-
FOX VALLEY

CITY           SKY/WX    TMP DP  RH WIND       PRES   REMARKS
NWS GREEN BAY  CLEAR     42  34  73 N3        30.10R
APPLETON       NOT AVBL
OSHKOSH        CLEAR     48  30  49 SE3       30.08R
FOND DU LAC    CLEAR     42  31  64 CALM      30.08R
$$

WIZ022-050-052-220800-
EAST CENTRAL WISCONSIN

CITY           SKY/WX    TMP DP  RH WIND       PRES   REMARKS
STURGEON BAY   CLEAR     39  28  65 CALM      30.11S
MANITOWOC      NOT AVBL
SHEBOYGAN      CLEAR     39  34  82 NW3       30.08S
$$

LMZ563-521-522-541>543-220800-
LAKESHORE

STATION/POSITION TIME  TEMP    WIND        PRES    VSBY  WAVE
                       AIR SEA DIR/SP/G                  HT/PER
                 (UTC) (F)     (DEG/KT/KT) (MB)    (MI)  (FT/S)
SHEBOYGAN LKSHOR 0600           10/  6/  6 1018.9R
KEWAUNEE LKSHORE 0600                      1017.8R
NORTHPORT PIER   0600   46     330/  4/  7 1018.6R
N MID LAKE BUOY  0550   42 36  290/  6/  8 1018.5R         1/ 4
SISTER BAY LKSHO 0647   44      CALM  /  5   N/A
CHAMBERS ISLAND  0600   43     300/  2/  5 1019.0R
MENOMINEE LKSHOR 0600   47                 1019.3R
$$


USA.gov is the U.S. government's official web portal to all federal, state and local government web resources and services.